Location: ????????
(55.6189°N, 38.3031°E)
Time: 09:01:49
(UTC+00:00)

USA 234 - Pass Details

Date: 15 November 2019
Orbit: 1099 x 1108 km, 123.0° (Epoch: 09 December)

Event Time Altitude Azimuth Distance (km) Brightness Sun altitude
Rises 01:49:27 0° 88° (E) 3,917 7.5 -26.6°
Reaches altitude 10° 01:51:55 10° 87° (E) 2,960 6.5 -26.2°
Maximum altitude 01:58:27 80° 2° (N) 1,123 3.2 -25.3°
Enters shadow 02:00:20 50° 285° (WNW) 1,374 3.3 -25.0°
